TDRS 13

Last updated on Thu Sep 10 2026 00:02:50 GMT+0000 (Coordinated Universal Time)

1 42915U 17047A 26252.36951983 -.00000118 00000+0 00000+0 0 9990 2 42915 3.4814 4.7409 0013602 121.5097 343.8145 1.00271216 33198
UTC large
Height (km)
Speed (km/s)
/
Latitude / Longitude
Inclination (degrees)
Orbital Period (minutes)
Azimuth
Elevation
Range (km)
Doppler Factor

Next 0 passes for location: London (51.5072 / 0.1276)

No passes found over London.
TDRS 13